RADIO ROSTO (RS15)

Last updated on Fri Sep 11 2026 00:03:12 GMT+0000 (Coordinated Universal Time)

1 23439U 94085A 26253.43485600 -.00000052 00000+0 -27495-3 0 9993 2 23439 64.8166 165.3456 0159002 348.5283 11.2035 11.27583971305514
UTC large
Height (km)
Speed (km/s)
/
Latitude / Longitude
Inclination (degrees)
Orbital Period (minutes)
Azimuth
Elevation
Range (km)
Doppler Factor

Next 0 passes for location: London (51.5072 / 0.1276)

No passes found over London.
RADIO ROSTO (RS15)